GSAT0201 (PRN E18)

Last updated on Nov. 21, 2019, 4:16 a.m. UTC

1 40128U 14050A   19323.11066012 -.00000083  00000-0  00000-0 0  9992
2 40128  50.5797   9.8066 1663956  92.5648 286.5494  1.85519371 35690
UTC
Height (km)
Latitude
Longitude
Inclination
Orbital Period
UTC large
Height (km)
Speed (km/s)
/
Latitude / Longitude
Inclination (degrees)
Orbital Period (minutes)
Azimuth
Elevation
Range (km)
Doppler Factor
iOS Compass Heading
iOS Angle

Next 30 passes for location: Hong Kong

Rise time Rise Azimuth (degrees) Set time Set Azimuth (degrees) Duration Max altitude (degrees)

No matching passes for this satellites